| time (UTC) | temp F | wind direction | speed MPH | gust MPH | rain 1hr in | rain 24hr in | rain mn in | humidity % | barometer mb |
| 20260507053105 | 78 | 74 | 1.0 | 5.0 | 0.00 | 0.00 | 0.00 | 84 | 1016.6 |
| 20260507051501 | 78 | 23 | 1.0 | 6.0 | 0.00 | 0.00 | 0.00 | 83 | 1016.8 |
| 20260507050011 | 78 | 136 | 1.0 | 8.0 | 0.00 | 0.00 | 0.00 | 83 | 1017.0 |
| 20260507044506 | 78 | 38 | 1.0 | 6.0 | 0.00 | 0.00 | 0.00 | 82 | 1017.2 |
| 20260507043017 | 78 | 12 | 1.0 | 8.0 | 0.00 | 0.00 | 0.00 | 82 | 1017.2 |
| 20260507041519 | 78 | 127 | 1.0 | 6.0 | 0.00 | 0.00 | 0.00 | 82 | 1017.4 |
| 20260507040022 | 78 | 40 | 0.0 | 10.0 | 0.00 | 0.00 | 0.00 | 81 | 1017.5 |
| 20260507034533 | 78 | 56 | 2.0 | 6.0 | 0.00 | 0.00 | 0.00 | 82 | 1017.5 |
| 20260507033034 | 78 | 43 | 2.0 | 4.0 | 0.00 | 0.00 | 0.00 | 80 | 1017.7 |
| 20260507031601 | 78 | 84 | 2.0 | 8.0 | 0.00 | 0.00 | 0.00 | 79 | 1017.9 |
| 20260507030053 | 78 | 107 | 2.0 | 9.0 | 0.00 | 0.00 | 0.00 | 79 | 1018.0 |
| 20260507024548 | 78 | 67 | 1.0 | 6.0 | 0.00 | 0.00 | 0.00 | 79 | 1017.9 |
| 20260507023101 | 78 | 359 | 2.0 | 10.0 | 0.00 | 0.00 | 0.00 | 78 | 1017.9 |
| 20260507021549 | 78 | 50 | 2.0 | 6.0 | 0.00 | 0.00 | 0.00 | 79 | 1017.9 |
| 20260507020055 | 78 | 33 | 2.0 | 9.0 | 0.00 | 0.00 | 0.00 | 79 | 1017.8 |
| 20260507014602 | 78 | 109 | 1.0 | 4.0 | 0.00 | 0.00 | 0.00 | 80 | 1017.7 |
| 20260507013055 | 79 | 129 | 0.0 | 3.0 | 0.00 | 0.00 | 0.00 | 80 | 1017.6 |
| 20260507011557 | 79 | 35 | 0.0 | 8.0 | 0.00 | 0.00 | 0.00 | 80 | 1017.5 |
| 20260507010105 | 79 | 158 | 2.0 | 10.0 | 0.00 | 0.00 | 0.00 | 80 | 1017.3 |
| 20260507004558 | 79 | 162 | 4.0 | 8.0 | 0.00 | 0.00 | 0.00 | 80 | 1017.1 |
| 20260507003100 | 79 | 77 | 0.0 | 4.0 | 0.00 | 0.00 | 0.00 | 80 | 1017.0 |
| 20260507001606 | 79 | 16 | 0.0 | 6.0 | 0.00 | 0.00 | 0.00 | 81 | 1016.9 |
| 20260507000101 | 79 | 70 | 4.0 | 10.0 | 0.00 | 0.00 | 0.00 | 81 | 1016.9 |
| 20260506234604 | 79 | 54 | 2.0 | 7.0 | 0.00 | 0.00 | 0.00 | 81 | 1016.7 |
| 20260506233002 | 79 | 164 | 1.0 | 8.0 | 0.00 | 0.00 | 0.00 | 80 | 1016.4 |
| 20260506231503 | 79 | 60 | 1.0 | 6.0 | 0.00 | 0.00 | 0.00 | 80 | 1016.2 |
| 20260506230014 | 79 | 64 | 3.0 | 6.0 | 0.00 | 0.00 | 0.00 | 79 | 1016.2 |
| 20260506224513 | 80 | 59 | 2.0 | 10.0 | 0.00 | 0.00 | 0.00 | 79 | 1016.1 |
| 20260506223024 | 80 | 50 | 2.0 | 9.0 | 0.00 | 0.00 | 0.00 | 78 | 1015.8 |
| 20260506221526 | 80 | 53 | 2.0 | 10.0 | 0.00 | 0.00 | 0.00 | 76 | 1015.6 |
| 20260506220028 | 81 | 71 | 4.0 | 11.0 | 0.00 | 0.00 | 0.00 | 75 | 1015.5 |
| 20260506214539 | 81 | 163 | 3.0 | 11.0 | 0.00 | 0.01 | 0.00 | 74 | 1015.4 |
| 20260506213044 | 82 | 52 | 5.0 | 11.0 | 0.00 | 0.01 | 0.00 | 73 | 1015.3 |
| 20260506211552 | 83 | 162 | 2.0 | 13.0 | 0.00 | 0.01 | 0.00 | 73 | 1015.1 |
| 20260506210057 | 84 | 58 | 3.0 | 12.0 | 0.00 | 0.01 | 0.00 | 71 | 1015.0 |
| 20260506204555 | 84 | 68 | 5.0 | 10.0 | 0.00 | 0.01 | 0.00 | 72 | 1015.0 |
| 20260506203055 | 84 | 359 | 4.0 | 10.0 | 0.00 | 0.01 | 0.00 | 73 | 1015.0 |
| 20260506201557 | 84 | 137 | 2.0 | 10.0 | 0.00 | 0.01 | 0.00 | 75 | 1015.1 |
| 20260506200058 | 84 | 73 | 5.0 | 14.0 | 0.00 | 0.01 | 0.00 | 76 | 1015.1 |
| 20260506194634 | 85 | 68 | 4.0 | 10.0 | 0.00 | 0.01 | 0.00 | 75 | 1015.3 |
| 20260506193106 | 85 | 66 | 4.0 | 11.0 | 0.00 | 0.01 | 0.00 | 74 | 1015.5 |
| 20260506191602 | 85 | 64 | 3.0 | 7.0 | 0.00 | 0.01 | 0.00 | 76 | 1015.6 |
| 20260506190000 | 86 | 75 | 6.0 | 12.0 | 0.00 | 0.01 | 0.00 | 74 | 1015.7 |
| 20260506184501 | 86 | 71 | 3.0 | 11.0 | 0.00 | 0.01 | 0.00 | 74 | 1015.8 |
| 20260506183003 | 86 | 16 | 4.0 | 12.0 | 0.00 | 0.01 | 0.00 | 74 | 1016.0 |
| 20260506181505 | 85 | 78 | 6.0 | 13.0 | 0.00 | 0.01 | 0.00 | 73 | 1016.2 |
| 20260506180006 | 85 | 359 | 4.0 | 13.0 | 0.00 | 0.01 | 0.00 | 72 | 1016.3 |
| 20260506174517 | 85 | 58 | 3.0 | 12.0 | 0.00 | 0.01 | 0.00 | 72 | 1016.5 |
| 20260506173018 | 85 | 47 | 4.0 | 11.0 | 0.00 | 0.01 | 0.00 | 71 | 1016.8 |
| 20260506171521 | 86 | 143 | 4.0 | 9.0 | 0.00 | 0.01 | 0.00 | 69 | 1017.0 |
| 20260506170030 | 88 | 48 | 4.0 | 12.0 | 0.00 | 0.01 | 0.00 | 67 | 1017.1 |
| 20260506164532 | 88 | 59 | 3.0 | 9.0 | 0.00 | 0.01 | 0.00 | 69 | 1017.2 |
| 20260506163104 | 90 | 43 | 3.0 | 11.0 | 0.00 | 0.01 | 0.00 | 65 | 1017.4 |
| 20260506161544 | 90 | 80 | 3.0 | 12.0 | 0.00 | 0.01 | 0.00 | 66 | 1017.7 |
| 20260506160044 | 89 | 83 | 4.0 | 9.0 | 0.00 | 0.01 | 0.00 | 70 | 1017.6 |
| 20260506154604 | 89 | 113 | 2.0 | 6.0 | 0.00 | 0.01 | 0.00 | 67 | 1017.8 |
| 20260506153051 | 89 | 176 | 1.0 | 8.0 | 0.00 | 0.01 | 0.00 | 65 | 1017.9 |
| 20260506151559 | 89 | 135 | 0.0 | 6.0 | 0.00 | 0.01 | 0.00 | 68 | 1017.9 |
| 20260506144559 | 87 | 155 | 2.0 | 6.0 | 0.00 | 0.01 | 0.00 | 70 | 1018.0 |
| 20260506143107 | 87 | 74 | 3.0 | 8.0 | 0.00 | 0.01 | 0.00 | 68 | 1018.2 |
| 20260506141508 | 88 | 137 | 3.0 | 9.0 | 0.00 | 0.01 | 0.00 | 67 | 1018.3 |
| 20260506140103 | 88 | 88 | 2.0 | 10.0 | 0.00 | 0.01 | 0.00 | 68 | 1018.4 |
| 20260506134502 | 87 | 47 | 3.0 | 7.0 | 0.00 | 0.01 | 0.00 | 69 | 1018.2 |
| 20260506133002 | 86 | 87 | 6.0 | 10.0 | 0.00 | 0.01 | 0.00 | 71 | 1018.3 |
| 20260506131504 | 84 | 88 | 4.0 | 11.0 | 0.00 | 0.01 | 0.00 | 74 | 1018.3 |
| 20260506130005 | 84 | 89 | 4.0 | 12.0 | 0.00 | 0.01 | 0.00 | 74 | 1018.2 |
| 20260506124516 | 83 | 77 | 2.0 | 11.0 | 0.00 | 0.04 | 0.00 | 77 | 1018.0 |
| 20260506123017 | 81 | 164 | 2.0 | 9.0 | 0.00 | 0.04 | 0.00 | 78 | 1018.1 |
| 20260506121535 | 81 | 135 | 4.0 | 12.0 | 0.00 | 0.04 | 0.00 | 79 | 1018.0 |
| 20260506120030 | 80 | 133 | 1.0 | 10.0 | 0.00 | 0.04 | 0.00 | 79 | 1018.0 |
| 20260506114541 | 79 | 359 | 2.0 | 11.0 | 0.00 | 0.04 | 0.00 | 81 | 1017.9 |
| 20260506113042 | 79 | 55 | 3.0 | 6.0 | 0.00 | 0.04 | 0.00 | 83 | 1017.5 |
| 20260506111543 | 79 | 62 | 2.0 | 8.0 | 0.00 | 0.04 | 0.00 | 83 | 1017.5 |
| 20260506110051 | 79 | 206 | 2.0 | 6.0 | 0.00 | 0.04 | 0.00 | 84 | 1017.3 |
| 20260506104543 | 78 | 54 | 2.0 | 12.0 | 0.00 | 0.04 | 0.00 | 85 | 1017.2 |
| 20260506103044 | 78 | 70 | 2.0 | 10.0 | 0.00 | 0.04 | 0.00 | 85 | 1017.3 |
| 20260506101546 | 78 | 67 | 2.0 | 8.0 | 0.00 | 0.04 | 0.00 | 85 | 1017.2 |
| 20260506100047 | 78 | 54 | 1.0 | 8.0 | 0.00 | 0.04 | 0.00 | 86 | 1017.0 |
| 20260506094549 | 78 | 111 | 1.0 | 5.0 | 0.00 | 0.04 | 0.00 | 85 | 1016.8 |
| 20260506093043 | 78 | 166 | 2.0 | 8.0 | 0.00 | 0.04 | 0.00 | 85 | 1016.7 |
| 20260506091542 | 78 | 63 | 2.0 | 5.0 | 0.00 | 0.04 | 0.00 | 85 | 1016.6 |
| 20260506090043 | 78 | 65 | 3.0 | 6.0 | 0.00 | 0.04 | 0.00 | 85 | 1016.5 |
| 20260506084547 | 78 | 75 | 2.0 | 8.0 | 0.00 | 0.04 | 0.00 | 84 | 1016.4 |
| 20260506083046 | 78 | 76 | 3.0 | 6.0 | 0.00 | 0.04 | 0.00 | 85 | 1016.4 |
| 20260506081547 | 78 | 83 | 2.0 | 8.0 | 0.00 | 0.04 | 0.00 | 85 | 1016.4 |
| 20260506073052 | 78 | 58 | 4.0 | 8.0 | 0.00 | 0.04 | 0.00 | 83 | 1016.2 |
| 20260506071554 | 78 | 137 | 3.0 | 9.0 | 0.00 | 0.04 | 0.00 | 83 | 1016.3 |
| 20260506061600 | 79 | 88 | 1.0 | 10.0 | 0.00 | 0.04 | 0.00 | 83 | 1016.6 |
| 20260506060105 | 79 | 134 | 1.0 | 7.0 | 0.00 | 0.04 | 0.00 | 82 | 1016.8 |